User: anonymous   Login
Location: Saddleback Butte
(34.6776°N, 117.8050°W)
Time: 21:36:54
(UTC-07:00)
Language:

Cosmos 1862 Rocket - Orbit

View from above orbital plane
View from above orbital plane
View from above satellite
View from above satellite

Ground track
Ground track

The orbit data is extracted from the following two-line orbital elements,

1 18153U 87055B   15108.14051631  .00000534  00000-0  62691-4 0  9999
2 18153 082.4981 127.0480 0022111 164.8600 195.3281 14.82922231501117
Epoch (UTC): 18 April 2015 03:22:20
Eccentricity: 0.0022111
inclination: 82.4981°
perigee height: 604 km
apogee height: 635 km
right ascension of ascending node: 127.0480°
argument of perigee: 164.8600°
revolutions per day: 14.82922231
mean anomaly at epoch: 195.3281°
orbit number at epoch: 50111

The dashed part of the orbit path shows where the satellite is in the earth's shadow,  

DLR